Location: Unspecified
(0.0000°N, 0.0000°E)
Time: 15:49:28
(UTC+00:00)

Courier 1B - Pass Details

Date: 16 February 2026
Orbit: 962 x 1208 km, 28.3° (Epoch: 16 March)

Event Time Altitude Azimuth Distance (km) Brightness Sun altitude
Exits shadow 05:16:50 18° 280° (W) 2,428 8.9 -14.0°
Maximum altitude 05:22:11 52° 210° (SSW) 1,328 8.1 -12.7°
Drops below altitude 10° 05:28:57 10° 135° (SE) 2,845 10.9 -11.0°
Sets 05:31:40 0° 130° (SE) 3,764 11.8 -10.4°
